Location: USNO
(38.9242°N, 77.0663°W)
Time: 15:58:14
(UTC-04:00)

Tiangong 2 - Pass Details

Date: 13 October 2017
Orbit: 388 x 391 km, 42.8° (Epoch: 20 October)

Event Time Altitude Azimuth Distance (km) Brightness Sun altitude
Exits shadow 05:53:33 36° 320° (NW) 638 1.8 -16.8°
Maximum altitude 05:54:12 41° 353° (N) 574 1.8 -16.7°
Drops below altitude 10° 05:57:16 10° 67° (ENE) 1,422 5.0 -16.1°
Sets 05:59:25 0° 74° (ENE) 2,279 6.6 -15.7°
